Location: Carrer del Canonge
(41.4901°N, 2.2931°E)
Time: 04:56:58
(UTC+00:00)

CZ-4 R/B - Pass Details

Date: 18 September 2020
Orbit: 530 x 600 km, 97.7° (Epoch: 25 October)

Event Time Altitude Azimuth Distance (km) Brightness Sun altitude
Rises 18:42:18 0° 178° (S) 2,831 4.8 -9.7°
Reaches altitude 10° 18:44:30 10° 183° (S) 1,935 4.0 -10.1°
Maximum altitude 18:48:37 53° 260° (W) 745 2.4 -10.9°
Drops below altitude 10° 18:52:45 10° 338° (NNW) 1,943 4.6 -11.7°
Sets 18:54:58 0° 343° (NNW) 2,844 5.4 -12.1°
